Back to catalog

GONETS M 12

M22

AliveCommunicationsPO
NORAD 40553·PAYLOAD·🇷🇺 Russia

Launched Mar 31, 2015 from Plesetsk Cosmodrome

Loading…

Next Passes (next 24 hours)

TLE

FreshSource: Space-Track

Epoch: Sep 14, 2026, 13:47 UTC

1 40553U 15020B   26257.57472122  .00000003  00000-0 -53921-4 0  9995
2 40553  82.4952 336.4499 0016037 149.2906 210.9115 12.42893434519830

Track GONETS M 12 in real time with AllMySat

Download on the App Store